Starlink 11318

operational
NORAD ID: 61252 Int'l Des: 2024-175 Owner: SPXS Country: US Constellation: starlink
LEOCIRCULAR

关于 Starlink 11318

正在加载描述...

实时位置

正在加载3D地球...

即将过境

高度历史

Altitude vs Time

uPlot chart will show altitude changes over time

两行轨道根数

1 61252U 24175K 25306.35462919 .00007028 00000-0 62687-4 0 9990
2 61252 53.1575 324.2309 0001061 56.2699 303.8420 15.69760219 64536
Epoch: Nov 2, 2025 • Age: 19 hours

当前状态

高度 375.2 km
速度 7.68 km/s
星下点 -44.35°S, 86.32°E
发射日期 Sep 25, 2024
运行时间 1.1 years
类型 internet

技术详情

分类 Payload
质量 960.00 kg
干质量 910.00 kg
总质量 960.00 kg
长度 0.30 m
直径 4.10 m
跨度 29.00 m
形状 Box + pan
制造商 SPXS
平台类型 Starlink V2MD
阶段状态 In Orbit
所有者/国家 SPXS/US

大型星座

Loading constellations...